Weather in Liubech

Ukraine / Chernihiv Region     51°42′30″N   30°39′50″E
temp.,
°C
wind,
m/s
gust,
m/s
humid.,
%
clouds,
%
prec.,
mm/h
press.,
hPa
HPBL,
m
10 april, sat
sat1000:00+3ssw34700 0.0 102664
03:00+2s35745 0.0 102680
06:00+1s38775 0.0 1026127
09:00+6ssw59605 0.0 1026418
12:00+10ssw67425 0.0 10251602
15:00+12ssw57375 0.0 10241791
18:00+11ssw46432 0.0 1023984
21:00+6s49600 0.0 1025147
11 april, sun
sun1100:00+5s49660 0.0 1026160
03:00+4s38700 0.0 1027144
06:00+3ssw36720 0.0 102798
09:00+8ssw35560 0.0 1029253
12:00+13s44410 0.0 1029991
15:00+14sse33370 0.0 10281381
18:00+14se33420 0.0 1027604
21:00+9se33580 0.0 102839
12 april, mon
mon1200:00+7se22620 0.0 102920
03:00+6e33680 0.0 102828
06:00+4e227349 0.0 102724
09:00+9e465814 0.0 1026298
12:00+13e4540100 0.0 1024888
15:00+14e4443100 0.0 1023941
18:00+9ese4683100 0.1 1022346
21:00+9e2589100 0.2 1022221
13 april, tue
tue1300:00+9e1193100 0.8 102135
03:00+9n1193100 0.8 102013
06:00+9n1195100 0.0 102016
09:00+9ne1193100 0.0 101973
12:00+11s1188100 0.0 1019167
15:00+11ssw1287100 0.0 1019236
18:00+12s2386100 0.0 1018244
21:00+11sse3592100 0.0 1018141
14 april, wed
wed1400:00+10sse3794100 0.0 1017197
03:00+9sse3794100 0.0 1016175
06:00+9se3792100 0.1 1016184
09:00+10se4885100 0.1 1015359
12:00+14sse686274 0.0 10151258
15:00+14sse5758100 0.0 10141355
18:00+13sse3864100 0.0 1013319
21:00+12se2367100 0.0 101345